User: anonymous   Login
Location: Huntington Beach
(33.6600°N, 117.9980°W)
Time: 09:27:02
(UTC-07:00)
Language:

SL-16 R/B - Orbit

View from above orbital plane
View from above orbital plane
View from above satellite
View from above satellite

Ground track
Ground track

The orbit data is extracted from the following two-line orbital elements,

1 28353U 04021B   16240.81872835 -.00000162  00000-0 -60044-4 0  9992
2 28353  71.0020 333.7001 0007274 279.5934  80.4366 14.14175462630684
Epoch (UTC): 27 August 2016 19:38:58
Eccentricity: 0.0007274
inclination: 71.0020°
perigee height: 840 km
apogee height: 850 km
right ascension of ascending node: 333.7001°
argument of perigee: 279.5934°
revolutions per day: 14.14175462
mean anomaly at epoch: 80.4366°
orbit number at epoch: 63068

The dashed part of the orbit path shows where the satellite is in the earth's shadow,  

DLR